User: anonymous   Login
Location: Unspecified
(0.0000°N, 0.0000°E)
Time: 04:35:55
(UTC+02:00)
Language:

Cosmos 1898 Rocket - Orbit

View from above orbital plane
View from above orbital plane
View from above satellite
View from above satellite

Ground track
Ground track

The orbit data is extracted from the following two-line orbital elements,

1 18586U 87098B   15182.54089721 -.00000011  00000-0  52766-5 0  9997
2 18586 074.0053 174.8305 0020223 038.0330 099.9372 14.36633088444444
Epoch (UTC): 01 July 2015 12:58:53
Eccentricity: 0.0020223
inclination: 74.0053°
perigee height: 755 km
apogee height: 784 km
right ascension of ascending node: 174.8305°
argument of perigee: 38.0330°
revolutions per day: 14.36633088
mean anomaly at epoch: 99.9372°
orbit number at epoch: 44444

The dashed part of the orbit path shows where the satellite is in the earth's shadow,  

DLR